Flight Track Log - Related Links

Times and Time Zones

All times are in EDT time to prevent confusion due to time zone crossing. See the N559LC flight status page for this flight to view local times or setup timezone preferences in your user account.

Time Position Orientation Groundspeed Altitude Reporting Facility
EDT Latitude Longitude Course Direction KTS MPH feet Rate Location/Type
Thu 09:16:04 AM 42.2250 -83.3389 North 159 183 1,400  Level Cleveland Center
Thu 09:17:11 AM 42.2867 -83.3278 North 214 246 5,100 3,231 Climbing Cleveland Center
Thu 09:17:48 AM 42.3242 -83.3311 356° North 232 267 7,000 3,148 Climbing Cleveland Center
Thu 09:18:12 AM 42.3506 -83.3422 343° North 244 281 8,300 1,905 Climbing Cleveland Center
Thu 09:18:51 AM 42.3944 -83.3622 341° North 272 313 9,000 2,164 Climbing Cleveland Center
Thu 09:19:13 AM 42.4086 -83.4042 295° West 312 359 10,500 3,097 Climbing Cleveland Center
Thu 09:19:53 AM 42.4119 -83.4719 274° West 297 342 12,200 1,529 Climbing Cleveland Center
Thu 09:20:55 AM 42.4142 -83.5814 272° West 308 354 13,100 2,081 Climbing Cleveland Center
Thu 09:21:57 AM 42.4175 -83.7164 272° West 310 357 16,500 3,097 Climbing Cleveland Center
Thu 09:22:59 AM 42.4197 -83.8328 272° West 310 357 19,500 2,516 Climbing Cleveland Center
Thu 09:24:01 AM 42.4219 -83.9458 272° West 307 353 21,700 2,032 Climbing Cleveland Center
Thu 09:25:03 AM 42.4244 -84.0647 272° West 318 366 23,700 1,500 Climbing Cleveland Center
Thu 09:26:05 AM 42.4275 -84.1894 272° West 331 381 24,800 1,113 Climbing Cleveland Center
Thu 09:27:07 AM 42.4317 -84.3619 272° West 387 445 26,000 1,500 Climbing Cleveland Center
Thu 09:28:09 AM 42.4356 -84.5067 272° West 388 447 27,900 1,645 Climbing Cleveland Center
Thu 09:29:11 AM 42.4383 -84.6533 272° West 388 447 29,400 1,694 Climbing Cleveland Center
Thu 09:30:13 AM 42.4422 -84.8094 272° West 391 450 31,400 1,964 Climbing Cleveland Center
Thu 09:31:01 AM 42.4453 -84.9236 272° West 388 447 33,000 1,855 Climbing Chicago Center
Thu 09:32:03 AM 42.4489 -85.0653 272° West 382 440 34,800 1,951 Climbing Chicago Center
Thu 09:33:04 AM 42.4519 -85.2025 272° West 369 425 37,000 1,561 Climbing Chicago Center
Thu 09:34:06 AM 42.4542 -85.3375 271° West 364 419 38,000 484 Climbing Chicago Center
Thu 09:35:08 AM 42.4558 -85.4731 271° West 363 418 38,000  Level Chicago Center
Thu 09:36:09 AM 42.4583 -85.6089 271° West 363 418 38,000 634 Level Chicago Center
Thu 09:37:11 AM 42.4600 -85.7467 271° West 364 419 39,300 1,210 Climbing Chicago Center
Thu 09:38:13 AM 42.4511 -85.9072 266° West 360 414 40,500 1,024 Climbing Chicago Center
Thu 09:39:14 AM 42.4147 -86.0283 248° West 353 406 41,400 878 Climbing Chicago Center
Thu 09:40:16 AM 42.3775 -86.1464 247° West 347 399 42,300 774 Climbing Chicago Center
Thu 09:41:18 AM 42.3422 -86.2644 248° West 343 395 43,000 341 Climbing Chicago Center
Thu 09:42:19 AM 42.3044 -86.3831 247° West 342 394 43,000  Level Chicago Center
Thu 09:43:21 AM 42.2650 -86.5136 248° West 351 404 43,000  Level Chicago Center
Thu 09:44:23 AM 42.2272 -86.6361 247° West 352 405 43,000  Level Chicago Center
Thu 09:45:24 AM 42.1872 -86.7617 247° West 362 417 43,000  Level Chicago Center
Thu 09:46:26 AM 42.1481 -86.8850 247° West 362 417 43,000  Level Chicago Center
Thu 09:47:27 AM 42.1092 -87.0083 247° West 362 417 43,000  Level Chicago Center
Thu 09:48:29 AM 42.0581 -87.1633 246° West 366 421 43,000  Level Chicago Center
Thu 09:49:31 AM 42.0183 -87.2894 247° West 372 428 43,000  Level Chicago Center
Thu 09:50:32 AM 41.9742 -87.4247 246° West 379 436 43,000  Level Chicago Center
Thu 09:51:34 AM 41.9322 -87.5567 247° West 382 440 43,000  Level Chicago Center
Thu 09:52:36 AM 41.8892 -87.6906 247° West 390 449 43,000  Level Chicago Center
Thu 09:53:37 AM 41.8444 -87.8231 246° West 390 449 43,000  Level Chicago Center
Thu 09:54:39 AM 41.8003 -87.9589 246° West 393 452 43,000  Level Chicago Center
Thu 09:55:41 AM 41.7464 -88.1217 246° West 398 458 43,000  Level Chicago Center
Thu 09:56:42 AM 41.7033 -88.2564 247° West 398 458 43,000  Level Chicago Center
Thu 09:57:44 AM 41.6572 -88.3900 245° Southwest 397 457 43,000  Level Chicago Center
Thu 09:58:46 AM 41.6122 -88.5228 246° West 397 457 43,000  Level Chicago Center
Thu 09:59:48 AM 41.5678 -88.6567 246° West 397 457 43,000  Level Chicago Center
Thu 10:00:49 AM 41.5225 -88.7883 245° Southwest 396 456 43,000  Level Chicago Center
Thu 10:01:51 AM 41.4775 -88.9186 245° Southwest 391 450 43,000  Level Chicago Center
Thu 10:02:53 AM 41.4342 -89.0456 246° West 382 440 43,000  Level Chicago Center
Thu 10:03:54 AM 41.3811 -89.1983 245° Southwest 381 438 43,000  Level Chicago Center
Thu 10:04:56 AM 41.3381 -89.3253 246° West 380 437 43,000  Level Chicago Center
Thu 10:05:58 AM 41.2936 -89.4514 245° Southwest 380 437 43,000  Level Chicago Center
Thu 10:06:59 AM 41.2486 -89.5789 245° Southwest 380 437 43,000  Level Chicago Center
Thu 10:08:01 AM 41.2053 -89.7047 245° Southwest 380 437 43,000  Level Chicago Center
Thu 10:09:03 AM 41.1597 -89.8328 245° Southwest 381 438 43,000  Level Chicago Center
Thu 10:10:05 AM 41.1144 -89.9617 245° Southwest 385 443 43,000 -634 Level Chicago Center
Thu 10:11:06 AM 41.0597 -90.1147 245° Southwest 386 444 41,700 -1,512 Descending Chicago Center
Thu 10:12:08 AM 41.0131 -90.2447 245° Southwest 389 448 39,900 -1,694 Descending Chicago Center
Thu 10:13:10 AM 40.9636 -90.3836 245° Southwest 416 479 38,200 -927 Descending Chicago Center
Thu 10:14:11 AM 40.9147 -90.5197 245° Southwest 414 476 38,000 -98 Descending Chicago Center
Thu 10:15:13 AM 40.8658 -90.6514 244° Southwest 405 466 38,000  Level Chicago Center
Thu 10:16:15 AM 40.8172 -90.7844 244° Southwest 405 466 38,000  Level Chicago Center
Thu 10:17:17 AM 40.7581 -90.9450 244° Southwest 405 466 38,000  Level Chicago Center
Thu 10:18:18 AM 40.7094 -91.0775 244° Southwest 404 465 38,000  Level Chicago Center
Thu 10:19:20 AM 40.6603 -91.2097 244° Southwest 404 465 38,000  Level Chicago Center
Thu 10:20:22 AM 40.6161 -91.3314 244° Southwest 404 465 38,000  Level Chicago Center
Thu 10:20:58 AM 40.5847 -91.4100 242° Southwest 405 466 38,000  Level Kansas City Center
Thu 10:21:58 AM 40.5353 -91.5431 244° Southwest 406 467 38,000  Level Kansas City Center
Thu 10:23:02 AM 40.4733 -91.7050 243° Southwest 411 473 38,000 -288 Level Kansas City Center
Thu 10:24:03 AM 40.4222 -91.8419 244° Southwest 414 476 37,400 -992 Descending Kansas City Center
Thu 10:25:03 AM 40.3717 -91.9775 244° Southwest 416 479 36,000 -683 Descending Kansas City Center
Thu 10:26:06 AM 40.3203 -92.1114 243° Southwest 416 479 36,000 -629 Level Kansas City Center
Thu 10:27:07 AM 40.2686 -92.2469 243° Southwest 416 479 34,700 -984 Descending Kansas City Center
Thu 10:28:08 AM 40.2069 -92.4031 243° Southwest 417 480 34,000 -339 Descending Kansas City Center
Thu 10:29:11 AM 40.1572 -92.5344 244° Southwest 418 481 34,000  Level Kansas City Center
Thu 10:30:12 AM 40.0983 -92.6872 243° Southwest 420 483 34,000  Level Kansas City Center
Thu 10:31:16 AM 40.0436 -92.8267 243° Southwest 424 488 34,000 -871 Level Kansas City Center
Thu 10:32:16 AM 39.9900 -92.9647 243° Southwest 426 490 32,200 -2,331 Descending Kansas City Center
Thu 10:33:17 AM 39.9361 -93.1031 243° Southwest 428 493 29,300 -2,951 Descending Kansas City Center
Thu 10:34:18 AM 39.8844 -93.2328 243° Southwest 412 474 26,200 -2,784 Descending Kansas City Center
Thu 10:35:22 AM 39.8358 -93.3536 242° Southwest 386 444 23,500 -2,613 Descending Kansas City Center
Thu 10:36:22 AM 39.7925 -93.4711 244° Southwest 372 428 20,800 -2,585 Descending Kansas City Center
Thu 10:37:25 AM 39.7478 -93.5800 242° Southwest 358 412 18,200 -2,736 Descending Kansas City Center
Thu 10:38:27 AM 39.6978 -93.7072 243° Southwest 329 379 15,100 -2,656 Descending Kansas City Center
Thu 10:39:27 AM 39.6600 -93.8000 242° Southwest 314 361 12,800 -2,098 Descending Kansas City Center
Thu 10:40:30 AM 39.6122 -93.9125 241° Southwest 318 366 10,800 -1,344 Descending Kansas City Center
Thu 10:41:32 AM 39.5664 -93.9881 232° Southwest 272 313 10,000 -1,268 Descending Kansas City Center
Thu 10:42:33 AM 39.5186 -94.0725 234° Southwest 262 302 8,200 -1,672 Descending Kansas City Center
Thu 10:43:34 AM 39.4789 -94.1439 234° Southwest 257 296 6,600 -1,887 Descending Kansas City Center
Thu 10:44:37 AM 39.4339 -94.2261 235° Southwest 254 292 4,300 -1,258 Descending Kansas City Center
Thu 10:45:38 AM 39.3950 -94.3008 236° Southwest 257 296 4,000 -148 Descending Kansas City Center
Thu 10:46:39 AM 39.3561 -94.3764 236° Southwest 261 300 4,000  Level Kansas City Center
Thu 10:47:43 AM 39.3278 -94.4628 247° West 232 267 4,000 -384 Level Kansas City Center
Thu 10:48:44 AM 39.3064 -94.5278 247° West 211 243 3,200 -496 Descending Kansas City Center
Thu 10:49:44 AM 39.2544 -94.5564 203° Southwest 178 205 3,000 -387 Descending Kansas City Center
Thu 10:50:48 AM 39.2133 -94.5669 191° South 163 188 2,400 -726 Descending Kansas City Center
Thu 10:51:48 AM 39.1669 -94.5806 193° South 156 180 1,500 -677 Descending Kansas City Center
Thu 10:52:52 AM 39.1289 -94.5911 192° South 155 178 1,000 -469 Descending Kansas City Center
Thu 10:54:00 AM 39.1229 -94.5928 180° South  Level Estimated

Login

Don't have an account? Register now (free) for customized features, flight alerts, and more!